Wind_Speed
35 38 38 39 41 41 35 34 35 35 36 35 39 44 47 49 45 43 41 44 41 37 33 34 36 37 38 39 39 39 39 38 43 37 35 30 26 24 21 37 33 36 38
38 38 40 41 39 38 38 40 40 39 42 47 47 42 39 39 38 38 41 41 38 36 38 36 35 34 37 36 36 38 39 37 33 38 32 28 27 18 20 22 33 35 35
39 40 39 38 38 41 39 37 42 45 39 37 39 40 43 39 40 40 41 41 39 37 35 36 34 34 33 33 37 37 32 28 34 35 25 21 24 22 23 21 25 32 29
37 35 34 36 39 37 42 46 41 40 40 38 40 42 43 41 41 43 43 43 40 38 37 34 33 35 33 38 30 36 30 38 35 33 30 26 24 23 21 24 26 24 28
34 35 38 41 40 43 38 37 40 40 40 41 42 43 42 43 41 42 38 41 43 37 33 32 37 35 33 30 33 27 31 28 32 29 35 30 29 27 24 21 20 24 24
34 39 37 39 42 41 40 40 45 43 44 40 42 41 42 41 39 37 37 36 38 43 37 36 33 32 39 30 35 32 29 32 36 33 32 26 30 28 23 21 19 19 24
36 36 37 41 42 39 39 45 45 43 44 44 42 42 42 40 36 36 34 34 33 30 31 32 29 30 28 26 30 26 23 21 21 19 33 26 27 22 18 18 15 21 18
35 38 39 42 42 41 43 44 44 44 43 43 44 39 41 42 36 34 30 29 28 27 28 24 28 28 26 28 27 26 27 26 29 33 30 33 24 21 19 17 13 14 21
35 39 42 42 41 45 46 46 47 47 47 45 45 46 43 44 36 33 26 25 24 25 23 22 22 26 27 23 23 25 27 28 20 31 28 25 28 29 24 19 18 15 20
40 39 40 40 43 45 46 47 48 47 48 47 48 43 38 36 33 29 24 23 24 23 21 19 18 19 20 20 22 26 27 28 30 27 24 20 20 24 26 31 25 24 24
37 38 42 42 43 44 46 46 47 44 45 43 39 36 32 28 28 26 22 22 22 22 18 16 18 15 18 19 19 18 19 24 23 21 23 23 24 27 27 23 25 28 28
37 41 43 43 42 43 44 45 40 38 36 39 45 45 40 30 24 22 20 21 20 20 19 14 12 11 14 14 17 20 15 18 19 18 19 21 20 23 24 31 26 27 32
38 41 41 43 43 42 41 37 36 32 32 41 37 35 32 31 30 26 20 21 21 20 19 15 13 10 10 8 12 17 17 16 16 17 19 17 18 18 19 29 25 24 25
38 41 41 43 41 39 36 33 30 29 30 33 32 33 32 32 31 28 26 19 21 20 18 17 15 14 14 15 14 13 12 14 17 19 19 19 17 18 18 22 21 22 24
36 38 41 41 40 38 32 29 27 26 27 25 29 32 34 34 34 30 27 27 20 21 18 17 17 17 18 19 21 21 22 22 21 19 19 19 18 18 19 18 18 20 21
36 37 39 38 37 33 30 28 24 23 20 20 25 28 32 33 35 31 12 16 20 20 16 18 16 17 20 21 20 20 20 22 23 21 20 19 19 19 21 21 20 23 24
35 35 35 36 34 30 26 26 29 25 21 22 23 26 29 32 32 31 31 26 20 15 11 10 12 15 18 17 21 23 22 19 19 21 21 21 21 20 20 19 21 22 27
34 31 32 33 30 27 23 23 22 21 24 27 26 25 27 28 30 19 14 12 10 8 9 7 6 11 18 19 21 24 24 25 27 25 23 21 22 24 21 22 24 27 29
33 30 29 29 26 25 22 22 21 21 21 22 25 24 25 25 28 29 29 29 25 19 13 10 8 7 9 10 14 15 18 23 26 27 29 28 28 28 26 28 29 30 29
31 26 26 27 25 24 23 22 22 20 20 21 26 22 22 26 29 28 27 25 23 20 17 15 13 11 9 7 11 16 17 18 20 20 22 24 26 25 31 31 27 24 20
26 25 23 25 24 23 23 21 20 19 19 20 22 20 21 24 26 26 25 23 22 18 15 12 11 11 9 7 7 7 10 14 19 25 27 27 26 24 22 21 24 20 18
23 24 23 22 23 22 20 19 18 18 18 19 19 18 20 24 24 23 21 21 20 20 17 14 12 12 12 11 7 3 10 12 15 16 17 20 20 19 18 20 22 23 23
21 21 22 21 22 20 19 18 18 19 19 19 18 20 22 23 24 23 23 21 20 19 18 19 16 13 12 11 10 4 5 13 17 18 18 17 17 20 19 25 20 21 26
19 18 20 21 20 18 17 17 18 19 20 19 19 21 22 22 22 22 22 21 20 17 17 17 17 15 14 15 14 9 4 12 22 20 17 16 19 22 18 19 25 25 25
17 17 18 19 20 18 16 16 17 20 21 18 19 20 22 21 21 22 22 23 22 19 20 19 17 18 18 19 17 13 10 13 19 21 20 21 16 23 26 24 24 24 25
16 15 15 17 18 17 17 16 15 17 20 19 18 19 19 21 20 21 23 25 24 20 21 21 20 20 23 23 19 14 15 23 27 22 24 24 24 24 23 24 25 25 23
Wind_Direction
305 306 305 306 308 308 308 305 304 306 301 296 295 295 294 296 298 291 290 292 285 281 283 273 266 266 267 260 256 259 261 255 252 255 257 264 266 260 249 241 236 232 237
307 306 308 309 310 309 307 304 303 300 300 299 303 304 307 303 299 293 295 297 289 280 272 276 271 269 269 262 255 257 258 251 248 250 250 254 257 262 256 252 225 231 230
306 307 310 312 310 308 310 306 305 307 310 310 310 309 309 305 302 297 292 291 283 278 276 265 268 264 267 256 254 250 253 248 246 252 246 252 249 248 237 240 237 235 229
311 314 312 309 311 310 307 308 315 318 310 305 303 300 302 300 293 297 291 289 286 283 269 265 264 253 267 252 248 251 253 248 245 247 249 244 248 240 243 243 223 224 222
314 313 312 311 311 314 318 317 315 309 308 301 302 300 302 300 298 292 288 287 282 272 264 263 262 260 259 254 253 254 249 255 251 235 244 240 239 236 231 242 240 227 224
314 314 319 318 319 324 318 315 315 309 310 307 306 303 300 299 296 290 288 287 283 277 267 273 270 261 255 246 236 241 243 247 240 238 242 237 230 226 237 244 251 227 229
318 324 323 321 323 318 314 315 318 312 311 310 307 304 301 300 294 294 288 283 281 281 275 269 266 263 254 258 256 254 244 250 226 230 232 227 229 226 237 235 248 228 223
324 323 321 323 323 320 319 318 319 318 314 312 308 306 302 301 301 295 290 288 279 282 277 270 266 266 258 253 258 250 253 259 253 242 243 238 230 228 228 241 254 236 218
319 321 324 326 320 321 321 320 319 316 315 311 309 306 300 301 293 296 287 286 283 277 282 273 269 261 251 239 247 260 253 259 247 224 236 236 235 227 231 237 242 232 232
321 326 329 323 321 322 321 320 319 317 316 312 311 309 305 298 291 293 282 278 281 278 276 269 263 252 252 243 243 254 247 240 223 212 216 217 217 227 235 242 238 230 231
325 329 331 326 326 327 323 323 322 322 320 321 316 311 307 302 296 292 274 271 272 272 275 265 256 258 239 244 244 242 192 195 202 213 220 227 228 232 233 234 228 218 226
337 333 331 329 332 329 325 326 328 329 329 330 330 316 312 311 306 295 272 262 261 259 261 257 248 254 249 243 231 220 203 208 215 227 236 238 239 241 234 223 234 234 233
332 332 333 335 335 330 328 334 335 335 336 337 338 338 334 324 312 303 280 259 250 246 248 248 233 244 233 230 214 219 213 211 225 237 241 243 240 228 232 223 234 228 231
334 335 338 337 334 337 341 344 343 339 339 337 345 350 345 330 323 313 301 282 235 234 233 231 230 233 225 233 227 213 208 224 226 231 245 244 240 235 226 224 229 226 229
337 338 338 338 338 342 344 350 352 352 344 341 355 1 357 347 335 315 286 269 251 208 212 218 218 218 226 237 246 244 237 232 232 232 235 239 238 232 222 228 230 230 223
340 339 340 340 345 346 348 352 3 360 354 354 360 2 1 356 353 354 326 204 228 175 196 214 220 225 235 242 242 241 238 227 226 235 240 241 235 225 224 225 231 226 235
341 340 341 346 347 348 354 358 351 356 5 5 6 6 10 14 24 41 71 98 121 147 185 205 223 232 237 247 252 241 235 227 227 237 245 240 228 223 227 233 228 230 225
344 346 349 348 350 351 356 359 351 357 0 7 13 17 19 31 42 69 79 110 130 132 175 205 254 256 260 259 252 249 242 247 236 238 237 230 228 222 232 228 225 220 208
345 350 350 352 356 358 4 3 2 5 11 26 26 26 32 42 49 57 70 76 78 81 91 108 123 148 166 170 226 240 235 237 238 233 226 226 232 236 227 218 214 211 210
347 354 358 360 3 4 9 9 11 21 27 34 37 36 41 45 46 48 52 58 66 70 76 79 81 78 79 113 156 162 179 199 220 222 227 228 224 217 212 207 200 196 194
348 356 2 7 9 8 12 20 26 34 38 46 48 42 44 51 53 49 47 48 50 52 59 67 70 74 84 98 113 141 177 182 176 173 177 184 187 191 198 190 180 194 227
352 0 2 6 12 12 15 25 38 41 46 50 52 46 47 55 50 42 45 48 49 51 49 47 50 52 47 46 48 173 193 183 177 178 178 180 175 176 195 203 206 203 205
356 2 5 9 13 17 29 36 41 46 52 53 54 53 51 48 39 39 44 41 40 41 46 45 45 47 39 25 19 22 192 190 185 183 180 179 181 183 196 186 193 211 185
358 3 11 15 17 23 35 41 47 50 49 54 59 56 53 48 39 38 37 36 35 37 41 42 43 39 30 22 23 30 111 168 183 180 173 169 187 188 188 189 178 177 175
1 4 11 19 20 26 39 45 46 46 48 55 59 54 48 42 39 39 32 32 37 43 42 42 35 33 30 29 33 44 85 136 149 157 168 177 165 157 163 165 167 169 171
6 10 13 20 25 31 39 43 43 44 45 49 53 47 48 50 40 33 32 35 38 47 44 43 38 33 33 35 40 62 103 129 134 135 134 139 146 154 161 162 161 161 163
Height
1505 1501 1496 1492 1488 1483 1478 1474 1469 1463 1459 1454 1450 1446 1442 1438 1435 1432 1429 1426 1425 1424 1422 1420 1419 1421 1420 1421 1424 1426 1426 1428 1427 1429 1433 1436 1437 1439 1440 1443 1447 1452 1454
1498 1494 1490 1485 1480 1475 1470 1465 1460 1454 1450 1445 1440 1434 1430 1427 1424 1421 1418 1415 1414 1412 1411 1410 1409 1410 1409 1411 1413 1414 1416 1418 1421 1421 1425 1428 1430 1432 1433 1436 1439 1443 1446
1493 1488 1482 1477 1473 1467 1461 1456 1451 1445 1439 1435 1430 1425 1420 1416 1413 1410 1407 1404 1402 1401 1400 1399 1399 1401 1400 1401 1403 1405 1406 1409 1412 1415 1418 1422 1424 1426 1428 1429 1431 1431 1438
1486 1481 1476 1471 1465 1459 1453 1448 1442 1436 1431 1426 1421 1416 1411 1407 1403 1399 1396 1392 1389 1388 1388 1389 1389 1389 1391 1391 1393 1396 1398 1401 1404 1407 1411 1415 1418 1421 1423 1425 1428 1431 1433
1480 1476 1470 1464 1458 1452 1445 1439 1434 1429 1423 1417 1410 1405 1400 1396 1392 1388 1384 1381 1378 1377 1377 1378 1378 1379 1380 1382 1385 1386 1391 1392 1396 1398 1404 1407 1411 1414 1418 1420 1422 1425 1429
1475 1470 1463 1457 1450 1443 1437 1431 1424 1418 1412 1406 1400 1394 1389 1385 1380 1377 1374 1370 1367 1365 1364 1365 1367 1369 1370 1369 1373 1378 1382 1384 1388 1392 1397 1400 1404 1408 1413 1416 1419 1421 1425
1467 1461 1456 1450 1442 1436 1430 1423 1415 1407 1401 1395 1389 1384 1378 1373 1369 1365 1362 1360 1357 1356 1355 1355 1357 1358 1360 1362 1365 1370 1373 1372 1381 1385 1389 1394 1400 1402 1407 1411 1414 1417 1419
1462 1456 1450 1442 1435 1429 1422 1414 1405 1399 1391 1384 1377 1372 1366 1361 1358 1354 1352 1350 1348 1347 1347 1347 1349 1350 1352 1355 1358 1361 1367 1371 1372 1378 1384 1390 1395 1397 1401 1406 1410 1413 1416
1457 1451 1443 1436 1428 1421 1413 1404 1396 1388 1381 1374 1367 1360 1355 1349 1347 1344 1343 1342 1340 1339 1340 1340 1341 1341 1343 1347 1351 1353 1357 1359 1365 1372 1379 1384 1386 1391 1396 1401 1403 1407 1410
1451 1444 1438 1431 1423 1414 1405 1396 1388 1381 1371 1363 1355 1350 1344 1339 1337 1335 1334 1334 1332 1332 1332 1333 1334 1335 1337 1341 1345 1347 1351 1353 1363 1370 1374 1378 1381 1385 1390 1393 1398 1402 1406
1445 1438 1431 1425 1416 1407 1397 1389 1380 1372 1363 1355 1346 1338 1333 1330 1327 1325 1325 1326 1325 1325 1326 1326 1328 1330 1333 1336 1340 1338 1344 1352 1359 1364 1369 1373 1376 1379 1383 1387 1391 1396 1400
1439 1432 1425 1417 1409 1400 1391 1382 1374 1366 1357 1347 1337 1328 1323 1320 1318 1317 1317 1318 1318 1319 1320 1322 1323 1326 1328 1331 1334 1339 1344 1352 1357 1361 1363 1366 1369 1371 1375 1381 1386 1391 1395
1435 1427 1419 1411 1403 1395 1386 1377 1368 1361 1353 1342 1333 1325 1318 1312 1308 1307 1306 1308 1310 1312 1315 1318 1320 1323 1326 1328 1331 1337 1342 1346 1350 1353 1356 1359 1363 1367 1371 1376 1381 1386 1390
1430 1422 1414 1406 1397 1389 1381 1373 1365 1358 1350 1343 1334 1325 1316 1308 1301 1296 1294 1296 1300 1306 1310 1313 1316 1320 1322 1325 1328 1331 1335 1341 1344 1348 1352 1355 1359 1362 1366 1371 1375 1379 1383
1427 1419 1411 1403 1394 1385 1377 1371 1364 1358 1351 1344 1336 1326 1316 1306 1296 1287 1281 1282 1289 1298 1305 1310 1313 1316 1319 1321 1324 1328 1332 1336 1339 1343 1347 1351 1354 1358 1362 1366 1370 1373 1376
1423 1416 1408 1400 1391 1384 1376 1368 1364 1359 1352 1346 1338 1330 1320 1309 1294 1277 1263 1270 1283 1296 1302 1307 1310 1313 1315 1317 1319 1323 1326 1330 1335 1339 1342 1346 1349 1353 1357 1361 1365 1368 1371
1422 1414 1406 1398 1390 1383 1376 1369 1363 1358 1353 1346 1339 1332 1323 1313 1299 1289 1282 1285 1292 1299 1303 1306 1309 1310 1311 1313 1314 1316 1321 1326 1331 1333 1336 1339 1344 1348 1352 1356 1359 1363 1366
1420 1413 1405 1398 1391 1384 1377 1371 1366 1359 1352 1346 1341 1335 1327 1320 1311 1302 1299 1299 1300 1301 1303 1305 1306 1307 1308 1308 1309 1311 1314 1318 1322 1326 1330 1334 1338 1342 1346 1350 1353 1357 1360
1418 1411 1404 1397 1391 1385 1378 1372 1367 1361 1356 1350 1345 1339 1334 1327 1321 1315 1310 1306 1306 1305 1305 1305 1305 1304 1304 1303 1303 1304 1306 1309 1313 1318 1323 1328 1332 1337 1340 1344 1348 1352 1357
1417 1411 1404 1397 1391 1385 1379 1374 1368 1363 1358 1354 1349 1345 1341 1334 1328 1325 1321 1318 1315 1313 1312 1310 1308 1307 1305 1304 1303 1303 1304 1306 1308 1312 1316 1321 1325 1330 1335 1339 1344 1348 1354
1415 1410 1404 1398 1392 1387 1382 1376 1371 1366 1362 1358 1354 1351 1347 1342 1338 1334 1330 1326 1322 1320 1317 1314 1312 1310 1308 1306 1305 1305 1305 1306 1308 1310 1314 1318 1322 1326 1332 1337 1342 1348 1351
1415 1410 1404 1399 1394 1389 1384 1379 1374 1370 1367 1363 1360 1356 1353 1348 1344 1341 1337 1333 1329 1325 1322 1318 1315 1312 1310 1308 1306 1305 1305 1306 1308 1311 1315 1318 1322 1326 1331 1336 1340 1345 1349
1415 1411 1406 1401 1396 1392 1387 1382 1378 1375 1371 1368 1365 1361 1358 1354 1350 1346 1342 1338 1333 1329 1325 1321 1318 1315 1312 1309 1305 1303 1302 1303 1306 1310 1314 1318 1322 1326 1330 1334 1338 1342 1347
1416 1412 1407 1403 1398 1394 1389 1385 1382 1379 1376 1373 1369 1367 1363 1360 1355 1352 1348 1344 1338 1333 1329 1325 1321 1318 1314 1309 1305 1302 1300 1301 1305 1309 1314 1317 1320 1324 1328 1332 1338 1343 1348
1417 1413 1409 1405 1401 1397 1393 1389 1386 1383 1380 1377 1374 1371 1369 1365 1361 1357 1353 1348 1342 1337 1333 1328 1324 1321 1317 1311 1306 1303 1302 1303 1305 1309 1313 1318 1321 1326 1331 1336 1340 1345 1350
1418 1414 1411 1407 1404 1400 1396 1393 1390 1387 1384 1382 1379 1376 1374 1371 1367 1361 1358 1353 1348 1343 1338 1333 1328 1324 1319 1314 1310 1307 1307 1308 1311 1315 1318 1322 1326 1331 1335 1339 1344 1348 1353